Date String (YYYY-MM-DD hh:mm:ss) UTC,Instrument flags,Ambient pressure (hPa),Sample flow (lpm),Bypass flow (lpm),Sample temperature (°C),Ambient temperature (°C),ASC tube jacket temperature (°C),LED temperature (°C),Box temperature (°C),Sample RH (%),Span deviation,Mass concentration (μg/m³),Mass concentration (μg/m³),Mass concentration (μg/m³)
DateTimeUTC,F1_M11,P_M11,Q1_M11,Q2_M11,T1_M11,T2_M11,T3_M11,T4_M11,T5_M11,U1_M11,ZSPAN_M11,X0_M11,X2_M11,X1_M11
2022-04-02 14:00:00,,0826.2,5.01,0.00,23.9,23.0,00.0,32.9,25.7,13.9,0000.0,0009.79,0003.93,0003.42
2022-04-02 14:01:00,,0826.2,4.99,0.00,24.0,23.0,00.0,32.9,25.7,13.9,0000.0,0009.63,0003.90,0003.40
2022-04-02 14:02:00,,0826.2,5.01,0.00,24.0,23.0,00.0,32.9,25.7,13.6,0000.0,0009.77,0003.91,0003.39
2022-04-02 14:03:00,,0826.1,4.99,0.00,24.0,23.0,00.0,32.9,25.7,13.5,0000.0,0009.83,0003.93,0003.38
2022-04-02 14:04:00,,0826.1,5.01,0.00,24.0,23.1,00.0,32.9,25.7,13.7,0000.0,0009.82,0003.93,0003.38
2022-04-02 14:05:00,,0826.1,5.01,0.00,24.0,23.1,00.0,32.9,25.7,13.8,0000.0,0009.87,0003.94,0003.38
2022-04-02 14:06:00,,0826.1,5.00,0.00,24.0,23.1,00.0,32.9,25.8,13.7,0000.0,0009.66,0003.96,0003.38
2022-04-02 14:07:00,,0826.1,5.01,0.00,24.0,23.1,00.0,32.9,25.8,13.8,0000.0,0008.75,0003.94,0003.38
2022-04-02 14:08:00,,0826.2,4.99,0.00,24.0,23.1,00.0,32.9,25.8,14.0,0000.0,0008.53,0003.93,0003.38
2022-04-02 14:09:00,,0826.1,5.01,0.00,24.0,23.1,00.0,32.9,25.9,14.0,0000.0,0008.38,0003.91,0003.38
2022-04-02 14:10:00,,0826.2,5.00,0.00,24.0,23.1,00.0,32.9,25.9,13.7,0000.0,0008.38,0003.94,0003.38
2022-04-02 14:11:00,,0826.1,4.99,0.00,24.0,23.1,00.0,33.0,25.9,13.7,0000.0,0008.14,0003.95,0003.38
2022-04-02 14:12:00,,0826.1,5.00,0.00,24.1,23.1,00.0,33.0,25.9,13.8,0000.0,0008.13,0003.94,0003.39
2022-04-02 14:13:00,,0826.1,5.01,0.00,24.1,23.2,00.0,33.0,25.9,13.9,0000.0,0008.03,0003.94,0003.40
2022-04-02 14:14:00,,0826.1,4.99,0.00,24.1,23.2,00.0,33.0,25.9,14.0,0000.0,0008.09,0003.96,0003.39
2022-04-02 14:15:00,,0826.0,5.01,0.00,24.1,23.1,00.0,33.0,25.9,13.8,0000.0,0008.12,0003.95,0003.39
2022-04-02 14:16:00,,0826.0,5.00,0.00,24.1,23.2,00.0,33.0,25.9,13.7,0000.0,0008.08,0003.94,0003.39
2022-04-02 14:17:00,,0826.1,5.00,0.00,24.1,23.2,00.0,33.0,25.9,13.8,0000.0,0008.11,0003.91,0003.39
2022-04-02 14:18:00,,0826.1,4.99,0.00,24.1,23.2,00.0,33.0,25.9,13.8,0000.0,0008.89,0003.97,0003.39
2022-04-02 14:19:00,,0826.1,5.00,0.00,24.1,23.2,00.0,33.0,25.9,14.0,0000.0,0008.49,0003.97,0003.39
2022-04-02 14:20:00,,0826.2,5.01,0.00,24.1,23.2,00.0,33.0,25.9,13.9,0000.0,0008.58,0003.94,0003.40
2022-04-02 14:21:00,,0826.2,5.00,0.00,24.1,23.2,00.0,33.0,26.0,14.4,0000.0,0009.00,0003.92,0003.40
2022-04-02 14:22:00,,0826.2,5.00,0.00,24.1,23.2,00.0,33.0,26.0,14.5,0000.0,0009.11,0003.92,0003.42
2022-04-02 14:23:00,,0826.1,4.98,0.00,24.1,23.2,00.0,33.0,25.9,14.5,0000.0,0009.30,0003.92,0003.43
2022-04-02 14:24:00,,0826.0,5.00,0.00,24.1,23.1,00.0,33.1,25.9,14.5,0000.0,0009.33,0003.93,0003.45
2022-04-02 14:25:00,,0826.0,5.01,0.00,24.1,23.1,00.0,33.1,25.9,14.4,0000.0,0009.75,0003.93,0003.46
2022-04-02 14:26:00,,0825.8,5.01,0.00,24.1,23.1,00.0,33.1,25.9,14.3,0000.0,0010.84,0003.93,0003.47
2022-04-02 14:27:00,,0825.9,4.99,0.00,24.1,23.2,00.0,33.1,25.9,14.4,0000.0,0011.32,0003.95,0003.49
2022-04-02 14:28:00,,0825.9,5.00,0.00,24.1,23.2,00.0,33.1,25.9,14.7,0000.0,0011.21,0003.98,0003.52
2022-04-02 14:29:00,,0826.0,5.00,0.00,24.1,23.2,00.0,33.1,25.9,14.5,0000.0,0010.44,0003.93,0003.52
2022-04-02 14:30:00,,0826.1,5.01,0.00,24.1,23.2,00.0,33.1,26.0,14.7,0000.0,0010.65,0003.93,0003.53
2022-04-02 14:31:00,,0826.1,5.01,0.00,24.2,23.2,00.0,33.1,26.0,14.6,0000.0,0010.45,0003.97,0003.55
2022-04-02 14:32:00,,0826.1,4.99,0.00,24.2,23.2,00.0,33.1,26.0,14.4,0000.0,0010.01,0003.98,0003.56
2022-04-02 14:33:00,,0826.1,4.99,0.00,24.2,23.2,00.0,33.1,26.0,14.5,0000.0,0009.85,0004.00,0003.58
2022-04-02 14:34:00,,0826.0,5.01,0.00,24.2,23.2,00.0,33.1,26.0,14.6,0000.0,0010.19,0004.03,0003.58
2022-04-02 14:35:00,,0826.0,5.01,0.00,24.2,23.3,00.0,33.1,26.0,14.9,0000.0,0010.33,0004.06,0003.59
2022-04-02 14:36:00,,0825.9,4.98,0.00,24.2,23.3,00.0,33.1,26.0,14.8,0000.0,0010.29,0004.06,0003.60
2022-04-02 14:37:00,,0825.9,5.01,0.00,24.2,23.3,00.0,33.1,26.0,14.7,0000.0,0009.73,0004.10,0003.62
2022-04-02 14:38:00,,0826.0,5.00,0.00,24.2,23.2,00.0,33.1,26.0,14.5,0000.0,0009.13,0004.12,0003.63
2022-04-02 14:39:00,,0826.0,5.01,0.00,24.2,23.2,00.0,33.1,26.0,14.6,0000.0,0009.06,0004.12,0003.63
2022-04-02 14:40:00,,0826.0,5.00,0.00,24.2,23.3,00.0,33.1,26.0,14.8,0000.0,0009.05,0004.13,0003.64
2022-04-02 14:41:00,,0826.0,4.99,0.00,24.2,23.3,00.0,33.1,26.0,14.7,0000.0,0008.92,0004.16,0003.66
2022-04-02 14:42:00,,0826.0,5.01,0.00,24.2,23.3,00.0,33.1,26.0,14.6,0000.0,0009.18,0004.16,0003.65
2022-04-02 14:43:00,,0825.9,5.00,0.00,24.2,23.3,00.0,33.1,26.0,14.1,0000.0,0009.37,0004.15,0003.65
2022-04-02 14:44:00,,0826.0,4.99,0.00,24.2,23.3,00.0,33.1,26.0,14.2,0000.0,0009.49,0004.17,0003.64
2022-04-02 14:45:00,,0826.0,5.01,0.00,24.3,23.3,00.0,33.2,26.1,14.4,0000.0,0009.22,0004.18,0003.63
2022-04-02 14:46:00,,0826.0,5.01,0.00,24.3,23.4,00.0,33.2,26.1,14.3,0000.0,0009.12,0004.20,0003.63
2022-04-02 14:47:00,,0826.0,4.99,0.00,24.3,23.4,00.0,33.2,26.1,14.4,0000.0,0008.92,0004.18,0003.62
2022-04-02 14:48:00,,0826.0,5.00,0.00,24.3,23.4,00.0,33.2,26.1,14.4,0000.0,0008.36,0004.15,0003.61
2022-04-02 14:49:00,,0826.0,5.01,0.00,24.3,23.4,00.0,33.2,26.1,14.4,0000.0,0008.37,0004.13,0003.59
2022-04-02 14:50:00,,0826.0,5.00,0.00,24.3,23.4,00.0,33.2,26.2,14.4,0000.0,0008.40,0004.10,0003.57
2022-04-02 14:51:00,,0826.1,5.00,0.00,24.3,23.5,00.0,33.2,26.2,14.1,0000.0,0008.55,0004.10,0003.55
2022-04-02 14:52:00,,0826.0,4.98,0.00,24.4,23.5,00.0,33.2,26.2,13.7,0000.0,0008.58,0004.07,0003.53
2022-04-02 14:53:00,,0826.0,5.00,0.00,24.4,23.4,00.0,33.2,26.2,13.7,0000.0,0008.02,0004.06,0003.51
2022-04-02 14:54:00,,0825.9,5.01,0.00,24.4,23.4,00.0,33.2,26.2,14.0,0000.0,0007.76,0004.05,0003.51
2022-04-02 14:55:00,,0825.8,5.01,0.00,24.4,23.4,00.0,33.3,26.2,14.8,0000.0,0007.84,0004.00,0003.51
2022-04-02 14:56:00,,0825.8,5.00,0.00,24.4,23.4,00.0,33.3,26.3,14.8,0000.0,0007.83,0003.99,0003.54
2022-04-02 14:57:00,,0825.9,5.00,0.00,24.4,23.5,00.0,33.3,26.2,14.5,0000.0,0007.69,0003.97,0003.55
2022-04-02 14:58:00,,0825.9,5.00,0.00,24.4,23.5,00.0,33.3,26.2,14.8,0000.0,0007.66,0003.99,0003.55
2022-04-02 14:59:00,,0825.9,4.99,0.00,24.4,23.5,00.0,33.3,26.2,15.1,0000.0,0007.67,0004.02,0003.56
